Terminal Aerodrome Forecast
Issued by NWS

Home | Current Version | Previous Version | Text Only | Print | Product List | Glossary On
Versions: 1 2 3 4 5 6 7 8 9 10 11 12 13 14 15 16 17 18
000
FTUS46 KLOX 211100
TAFLGB
TAF
KLGB 211131Z 2112/2212 VRB03KT P6SM SKC
     FM211300 VRB03KT P6SM SKC
     FM211700 17008KT P6SM SKC
     FM220200 30010KT P6SM SKC
     FM220500 VRB03KT P6SM SKC
     FM221000 VRB03KT P6SM BKN010=

USA.gov is the U.S. government's official web portal to all federal, state and local government web resources and services.